Regional Weather Roundup
Issued by NWS

Home | Current Version | Previous Version | Graphics & Text | Print | Product List | Glossary On
Versions: 1 2 3 4 5 6 7 8 9 10 11 12 13 14 15 16 17 18 19 20 21 22 23 24 25 26 27 28 29 30 31 32 33 34 35 36 37 38 39 40 41 42 43 44 45 46 47 48 49 50
000
ASUS43 KLOT 210903
RWRIL

ILLINOIS REGIONAL WEATHER ROUNDUP
NATIONAL WEATHER SERVICE CHICAGO/ROMEOVILLE IL
300 AM CST TUE NOV 21 2017

NOTE: "FAIR" INDICATES FEW OR NO CLOUDS BELOW 12,000 FEET WITH NO
SIGNIFICANT WEATHER AND/OR OBSTRUCTIONS TO VISIBILITY.

* THESE STATIONS ARE NOT UNDER NWS QUALITY CONTROL. THEY ALSO MAY NOT
  REPORT WEATHER SUCH AS PRECIPITATION OR FOG.

ILZ001-002-007-009-015-016-024-211000-
NORTHWEST ILLINOIS

CITY           SKY/WX    TMP DP  RH WIND       PRES   REMARKS
MOLINE         CLEAR     42  30  62 W8        29.68R
STERLING*        N/A     44  33  65 MISG        N/A
SAVANNA*       CLEAR     45  32  61 SW9       29.66R
$$

ILZ003-004-008-010-011-017-018-211000-
NORTH CENTRAL ILLINOIS

CITY           SKY/WX    TMP DP  RH WIND       PRES   REMARKS
ROCKFORD       CLOUDY    45  31  58 SW10G22   29.65R
FREEPORT*      PTCLDY    41  32  70 SW13G18   29.64S
ROCHELLE*      PTCLDY    41  33  71 SW5       29.66R
DE KALB*       PTCLDY    40  33  76 SW13      29.66S
PERU*          PTCLDY    43  31  62 SW14G24   29.70R
$$

ILZ005-006-012>014-019>023-211000-
NORTHEAST ILLINOIS

CITY           SKY/WX    TMP DP  RH WIND       PRES   REMARKS
CHICAGO-OHARE  CLOUDY    44  31  60 SW18G26   29.65F
CHICAGO-MIDWAY CLOUDY    43  32  65 S13       29.68S
AURORA         CLOUDY    41  32  70 S13       29.68S
LANSING*       PTCLDY    40  33  74 SW18G24   29.71F
JOLIET*        MOCLDY    45  32  62 SW10G18   29.70S
WAUKEGAN       CLOUDY    46  32  58 SW20G30   29.61S
DUPAGE AIRPORT PTCLDY    42  32  67 SW17G30   29.66S
KANKAKEE*      CLOUDY    40  31  70 SW15G24   29.74S
WHEELING       PTCLDY    45  32  60 SW14      29.66S
MORRIS*        MOCLDY    42  32  66 SW21G28   29.69S
ROMEOVILLE*    MOCLDY    42  32  67 SW17G25   29.68F
NORTHERLY ISL    N/A     43  30  60 S13         N/A
$$

LMZ740>746-211000-
SOUTHERN LAKE MICHIGAN

STATION/POSITION SKY/WX   TEMP    WIND        PRES    VSBY  WAVE
                          AIR SEA DIR/SP/G                  HT/PER
                          (F)     (DEG/KT/KT) (MB)    (MI)  (FT/S)
SOUTHERN BUOY              47 48  230/ 27/ 33 1002.5          9/ 7
HARRISON CRIB              44     210/ 28/ 33   N/A
BURNHAM HARBOR             43     210/ 11/ 17   N/A
CALUMET HARBOR             42     190/ 17/ 24 1004.8F
BURNS HARBOR               44     200/ 22/ 29 1006.1F
MICHIGAN CITY              44     190/ 25/ 28   N/A
$$

ILZ025>027-034>036-040-047-049-050-058-095>099-211000-
WEST-CENTRAL ILLINOIS

CITY           SKY/WX    TMP DP  RH WIND       PRES   REMARKS
QUINCY         CLEAR     45  31  58 SW13      29.75R
GALESBURG*     CLEAR     42  33  70 SW10      29.72R
MACOMB*        CLEAR     45  32  59 SW13      29.75R
JACKSONVILLE*  CLEAR     43  30  61 S12       29.77S
PITTSFIELD*    CLEAR     48  32  53 S10       29.78R
$$

ILZ028>032-037-038-041>044-048-051>054-059>061-211000-
CENTRAL ILLINOIS

CITY           SKY/WX    TMP DP  RH WIND       PRES   REMARKS
PONTIAC        CLOUDY    43  33  68 S18G26    29.73S
BLOOMINGTON    MOCLDY    40  31  70 SW18      29.76S
DECATUR        PTCLDY    42  30  62 S18       29.80F
PEORIA         CLOUDY    41  32  70 S10       29.74R
LACON*         PTCLDY    43  31  64 SW12G20   29.71R
SPRINGFIELD    PTCLDY    43  32  65 S14       29.78F
TAYLORVILLE    CLOUDY    40  31  68 S18G24    29.81S
$$

ILZ033-039-045-046-055>057-062-063-211000-
EAST-CENTRAL ILLINOIS

CITY           SKY/WX    TMP DP  RH WIND       PRES   REMARKS
CHAMPAIGN      PTCLDY    40  30  67 S23       29.79F
DANVILLE*      CLOUDY    40  29  65 SW15G24   29.78S
RANTOUL*       PTCLDY    42  32  68 SW15      29.78S
MATTOON        MOCLDY    40  28  62 S14       29.83F
PARIS*         MOCLDY    40  30  66 S22       29.85F
$$

ILZ079-100>102-211000-
SOUTHWEST ILLINOIS

CITY           SKY/WX    TMP DP  RH WIND       PRES   REMARKS
ALTON          MOCLDY    42  32  68 S12       29.85R
BELLEVILLE     CLOUDY    43  29  57 SW10      29.86S
CAHOKIA*       PTCLDY    43  29  57 S7        29.85F
SPARTA*        CLOUDY    41  28  60 S13       29.91S
$$

ILZ064>066-069>071-074>076-080>082-084>086-088>090-092>094-211000-
SOUTH-CENTRAL ILLINOIS

CITY           SKY/WX    TMP DP  RH WIND       PRES   REMARKS
CARBONDALE     CLOUDY    43  28  55 SW16      29.94F
CAIRO*         CLOUDY    40  29  66 S8        29.98F
EFFINGHAM*     PTCLDY    43  29  58 S9        29.89F
MARION         CLOUDY    43  29  57 S8        29.96S
MT. VERNON     CLOUDY    42  29  59 S10       29.93S
CENTRALIA*     MOCLDY    43  31  62 S16       29.89F
SALEM*         PTCLDY    44  28  54 S14       29.89F
METROPOLIS*    CLOUDY    41  28  59 S5        29.99F
$$

ILZ067-068-072-073-078-083-087-091-211000-
SOUTHEAST ILLINOIS

CITY           SKY/WX    TMP DP  RH WIND       PRES   REMARKS
LAWRENCEVILLE  CLOUDY    37  28  70 S3        29.93F
FLORA*         PTCLDY    43  30  59 S15       29.91F
FAIRFIELD*     CLOUDY    39  30  69 S3        29.92F
HARRISBURG*    CLOUDY    41  29  63 S3        29.96F
ROBINSON*      CLOUDY    39  27  63 S14       29.91F WCI  31
CARMI*         MOCLDY    38  29  71 S8        29.95F WCI  32
$$

ABBREVIATIONS USED IN REMARKS
   TC - TEMPERATURE IN CELSIUS
  WCI - WIND CHILL INDEX
   HX - HEAT INDEX
  VSB - VISIBILITY
$$





USA.gov is the U.S. government's official web portal to all federal, state and local government web resources and services.